| time (UTC) | temp C | wind direction | speed KPH | gust KPH | rain 1hr cm | rain 24hr cm | rain mn cm | humidity % | barometer mb |
| 20260507075538 | 13 | 0 | 0.0 | 4.8 | 0.00 | 0.00 | 0.00 | 95 | 1005.6 |
| 20260507075037 | 13 | 304 | 0.0 | 1.6 | 0.00 | 0.00 | 0.00 | 95 | 1005.6 |
| 20260507074551 | 13 | 232 | 0.0 | 1.6 | 0.00 | 0.00 | 0.00 | 95 | 1005.3 |
| 20260507074037 | 13 | 0 | 0.0 | 1.6 | 0.00 | 0.00 | 0.00 | 95 | 1005.1 |
| 20260507073537 | 12 | 0 | 0.0 | 0.0 | 0.00 | 0.00 | 0.00 | 95 | 1004.7 |
| 20260507073048 | 12 | 0 | 0.0 | 0.0 | 0.00 | 0.00 | 0.00 | 95 | 1004.9 |
| 20260507072538 | 12 | 0 | 0.0 | 0.0 | 0.00 | 0.00 | 0.00 | 95 | 1004.8 |
| 20260507072037 | 12 | 0 | 0.0 | 0.0 | 0.00 | 0.00 | 0.00 | 95 | 1004.9 |
| 20260507071606 | 12 | 0 | 0.0 | 0.0 | 0.00 | 0.00 | 0.00 | 95 | 1005.1 |
| 20260507071038 | 12 | 0 | 0.0 | 0.0 | 0.00 | 0.00 | 0.00 | 95 | 1005.2 |
| 20260507070537 | 12 | 0 | 0.0 | 0.0 | 0.00 | 0.00 | 0.00 | 94 | 1005.1 |
| 20260507070045 | 12 | 0 | 0.0 | 0.0 | 0.00 | 0.00 | 0.00 | 94 | 1005.1 |
| 20260507065537 | 12 | 0 | 0.0 | 0.0 | 0.00 | 0.00 | 0.00 | 94 | 1005.1 |
| 20260507065037 | 13 | 0 | 0.0 | 0.0 | 0.00 | 0.00 | 0.00 | 94 | 1005.1 |
| 20260507064542 | 13 | 0 | 0.0 | 0.0 | 0.00 | 0.00 | 0.00 | 94 | 1005.1 |
| 20260507064037 | 13 | 0 | 0.0 | 0.0 | 0.00 | 0.00 | 0.00 | 94 | 1004.9 |
| 20260507063538 | 13 | 0 | 0.0 | 0.0 | 0.00 | 0.00 | 0.00 | 94 | 1005.0 |
| 20260507063048 | 13 | 0 | 0.0 | 0.0 | 0.00 | 0.00 | 0.00 | 94 | 1004.9 |
| 20260507062538 | 13 | 0 | 0.0 | 0.0 | 0.00 | 0.00 | 0.00 | 94 | 1005.0 |
| 20260507062038 | 13 | 0 | 0.0 | 0.0 | 0.00 | 0.00 | 0.00 | 94 | 1005.3 |
| 20260507061545 | 13 | 0 | 0.0 | 1.6 | 0.00 | 0.00 | 0.00 | 94 | 1005.3 |
| 20260507061038 | 13 | 0 | 0.0 | 1.6 | 0.00 | 0.00 | 0.00 | 94 | 1005.5 |
| 20260507060538 | 13 | 0 | 0.0 | 1.6 | 0.00 | 0.00 | 0.00 | 94 | 1005.6 |
| 20260507060049 | 13 | 0 | 0.0 | 1.6 | 0.00 | 0.00 | 0.00 | 94 | 1005.5 |
| 20260507055538 | 13 | 231 | 0.0 | 1.6 | 0.00 | 0.00 | 0.00 | 94 | 1005.6 |
| 20260507055037 | 13 | 0 | 0.0 | 1.6 | 0.00 | 0.00 | 0.00 | 94 | 1005.7 |
| 20260507054545 | 13 | 0 | 0.0 | 1.6 | 0.00 | 0.00 | 0.00 | 94 | 1005.5 |
| 20260507054037 | 13 | 0 | 0.0 | 1.6 | 0.00 | 0.00 | 0.00 | 94 | 1005.6 |
| 20260507053538 | 13 | 0 | 0.0 | 6.4 | 0.00 | 0.00 | 0.00 | 94 | 1005.6 |
| 20260507053111 | 13 | 221 | 0.0 | 6.4 | 0.00 | 0.00 | 0.00 | 94 | 1005.6 |
| 20260507052538 | 13 | 240 | 0.0 | 3.2 | 0.00 | 0.00 | 0.00 | 94 | 1005.6 |
| 20260507052037 | 13 | 79 | 0.0 | 0.0 | 0.00 | 0.00 | 0.00 | 94 | 1005.7 |
| 20260507051552 | 13 | 0 | 0.0 | 4.8 | 0.00 | 0.00 | 0.00 | 94 | 1005.7 |
| 20260507051037 | 13 | 0 | 0.0 | 4.8 | 0.00 | 0.00 | 0.00 | 94 | 1005.8 |
| 20260507050538 | 13 | 101 | 1.6 | 3.2 | 0.00 | 0.00 | 0.00 | 94 | 1005.9 |
| 20260507050046 | 13 | 222 | 0.0 | 9.7 | 0.00 | 0.00 | 0.00 | 94 | 1006.1 |
| 20260507045539 | 13 | 0 | 0.0 | 9.7 | 0.00 | 0.00 | 0.00 | 94 | 1006.0 |
| 20260507045039 | 13 | 271 | 0.0 | 9.7 | 0.00 | 0.00 | 0.00 | 94 | 1006.0 |
| 20260507044546 | 13 | 0 | 0.0 | 1.6 | 0.00 | 0.00 | 0.00 | 94 | 1005.9 |
| 20260507044037 | 13 | 246 | 0.0 | 3.2 | 0.00 | 0.00 | 0.00 | 94 | 1005.9 |
| 20260507043537 | 13 | 0 | 0.0 | 3.2 | 0.00 | 0.00 | 0.00 | 94 | 1005.8 |
| 20260507043047 | 13 | 218 | 0.0 | 3.2 | 0.00 | 0.00 | 0.00 | 94 | 1006.0 |
| 20260507042537 | 13 | 184 | 0.0 | 3.2 | 0.00 | 0.00 | 0.00 | 94 | 1005.7 |
| 20260507042037 | 13 | 0 | 0.0 | 1.6 | 0.00 | 0.00 | 0.00 | 94 | 1005.8 |
| 20260507041549 | 13 | 0 | 0.0 | 3.2 | 0.00 | 0.00 | 0.00 | 94 | 1005.9 |
| 20260507041037 | 13 | 0 | 0.0 | 3.2 | 0.00 | 0.00 | 0.00 | 94 | 1005.8 |
| 20260507040538 | 13 | 0 | 0.0 | 3.2 | 0.00 | 0.00 | 0.00 | 94 | 1005.8 |
| 20260507040053 | 13 | 0 | 0.0 | 4.8 | 0.00 | 0.00 | 0.00 | 94 | 1006.0 |
| 20260507035538 | 13 | 60 | 0.0 | 4.8 | 0.00 | 0.00 | 0.00 | 94 | 1006.0 |
| 20260507035037 | 13 | 226 | 0.0 | 14.5 | 0.00 | 0.00 | 0.00 | 94 | 1006.1 |
| 20260507034550 | 13 | 266 | 0.0 | 14.5 | 0.00 | 0.00 | 0.00 | 94 | 1006.3 |
| 20260507034037 | 13 | 0 | 1.6 | 9.7 | 0.00 | 0.00 | 0.00 | 94 | 1006.4 |
| 20260507033538 | 13 | 324 | 1.6 | 9.7 | 0.00 | 0.00 | 0.00 | 94 | 1006.1 |
| 20260507033051 | 13 | 312 | 0.0 | 3.2 | 0.00 | 0.00 | 0.00 | 94 | 1006.1 |
| 20260507032539 | 13 | 0 | 0.0 | 9.7 | 0.00 | 0.00 | 0.00 | 94 | 1006.0 |
| 20260507032037 | 13 | 255 | 0.0 | 9.7 | 0.00 | 0.00 | 0.00 | 94 | 1006.1 |
| 20260507031553 | 13 | 284 | 3.2 | 9.7 | 0.00 | 0.00 | 0.00 | 94 | 1006.0 |
| 20260507031040 | 13 | 274 | 0.0 | 6.4 | 0.00 | 0.00 | 0.00 | 94 | 1005.8 |
| 20260507030537 | 13 | 233 | 1.6 | 4.8 | 0.00 | 0.00 | 0.00 | 94 | 1005.9 |
| 20260507030050 | 13 | 287 | 0.0 | 6.4 | 0.00 | 0.00 | 0.00 | 94 | 1005.9 |
| 20260507025537 | 13 | 323 | 0.0 | 6.4 | 0.00 | 0.00 | 0.00 | 94 | 1005.8 |
| 20260507025037 | 13 | 302 | 0.0 | 8.0 | 0.00 | 0.00 | 0.00 | 94 | 1005.7 |
| 20260507024544 | 13 | 237 | 1.6 | 8.0 | 0.00 | 0.00 | 0.00 | 94 | 1005.5 |
| 20260507024038 | 13 | 0 | 0.0 | 4.8 | 0.00 | 0.00 | 0.00 | 94 | 1005.4 |
| 20260507023537 | 13 | 0 | 0.0 | 4.8 | 0.00 | 0.00 | 0.00 | 94 | 1005.7 |
| 20260507023047 | 13 | 267 | 0.0 | 9.7 | 0.00 | 0.00 | 0.00 | 94 | 1005.7 |
| 20260507022537 | 13 | 0 | 0.0 | 9.7 | 0.00 | 0.00 | 0.00 | 94 | 1005.6 |
| 20260507022039 | 13 | 266 | 3.2 | 9.7 | 0.00 | 0.00 | 0.00 | 94 | 1005.7 |
| 20260507021545 | 13 | 268 | 0.0 | 6.4 | 0.00 | 0.00 | 0.00 | 94 | 1005.7 |
| 20260507021038 | 13 | 238 | 1.6 | 6.4 | 0.00 | 0.00 | 0.00 | 94 | 1006.0 |
| 20260507020538 | 13 | 238 | 0.0 | 4.8 | 0.00 | 0.00 | 0.00 | 94 | 1006.0 |
| 20260507020047 | 13 | 0 | 0.0 | 6.4 | 0.00 | 0.00 | 0.00 | 94 | 1006.3 |
| 20260507015537 | 13 | 283 | 0.0 | 6.4 | 0.00 | 0.00 | 0.00 | 94 | 1006.4 |
| 20260507015038 | 13 | 288 | 1.6 | 6.4 | 0.00 | 0.00 | 0.00 | 94 | 1006.2 |
| 20260507014601 | 13 | 218 | 1.6 | 6.4 | 0.00 | 0.00 | 0.00 | 94 | 1006.3 |
| 20260507014038 | 13 | 70 | 0.0 | 6.4 | 0.00 | 0.00 | 0.00 | 94 | 1006.5 |
| 20260507013538 | 13 | 240 | 1.6 | 6.4 | 0.00 | 0.00 | 0.00 | 94 | 1006.5 |
| 20260507013050 | 13 | 57 | 0.0 | 8.0 | 0.00 | 0.00 | 0.00 | 94 | 1006.4 |
| 20260507012537 | 13 | 233 | 1.6 | 8.0 | 0.00 | 0.00 | 0.00 | 94 | 1006.5 |
| 20260507012037 | 13 | 288 | 1.6 | 8.0 | 0.00 | 0.00 | 0.00 | 94 | 1006.5 |
| 20260507011545 | 13 | 218 | 1.6 | 8.0 | 0.00 | 0.00 | 0.00 | 94 | 1006.5 |
| 20260507011038 | 13 | 270 | 0.0 | 8.0 | 0.00 | 0.00 | 0.00 | 94 | 1006.6 |
| 20260507010537 | 13 | 224 | 1.6 | 8.0 | 0.00 | 0.00 | 0.00 | 94 | 1006.5 |
| 20260507010054 | 13 | 285 | 1.6 | 8.0 | 0.00 | 0.00 | 0.00 | 94 | 1006.5 |
| 20260507005535 | 13 | 235 | 0.0 | 8.0 | 0.00 | 0.00 | 0.00 | 93 | 1006.6 |
| 20260507005036 | 13 | 263 | 1.6 | 8.0 | 0.00 | 0.00 | 0.00 | 93 | 1006.6 |
| 20260507004559 | 13 | 235 | 1.6 | 9.7 | 0.00 | 0.00 | 0.00 | 93 | 1006.6 |
| 20260507004036 | 13 | 254 | 0.0 | 9.7 | 0.00 | 0.00 | 0.00 | 93 | 1006.6 |
| 20260507003538 | 13 | 193 | 3.2 | 9.7 | 0.00 | 0.00 | 0.00 | 93 | 1006.6 |
| 20260507003046 | 13 | 279 | 1.6 | 14.5 | 0.00 | 0.00 | 0.00 | 93 | 1006.7 |
| 20260507002538 | 13 | 221 | 1.6 | 14.5 | 0.00 | 0.00 | 0.00 | 93 | 1006.6 |
| 20260507002038 | 13 | 281 | 3.2 | 11.3 | 0.00 | 0.00 | 0.00 | 93 | 1006.6 |
| 20260507001551 | 13 | 217 | 1.6 | 11.3 | 0.00 | 0.00 | 0.00 | 94 | 1006.4 |
| 20260507001037 | 13 | 253 | 3.2 | 17.7 | 0.00 | 0.00 | 0.00 | 94 | 1006.4 |
| 20260507000538 | 13 | 29 | 3.2 | 17.7 | 0.00 | 0.00 | 0.00 | 94 | 1006.6 |
| 20260507000048 | 13 | 306 | 3.2 | 16.1 | 0.00 | 0.00 | 0.00 | 94 | 1006.5 |
| 20260506235539 | 13 | 0 | 1.6 | 19.3 | 0.00 | 0.00 | 0.00 | 94 | 1006.6 |
| 20260506235038 | 13 | 279 | 1.6 | 19.3 | 0.00 | 0.00 | 0.00 | 93 | 1006.4 |
| 20260506234545 | 13 | 280 | 3.2 | 14.5 | 0.00 | 0.00 | 0.00 | 93 | 1006.5 |
| 20260506234040 | 13 | 202 | 1.6 | 14.5 | 0.00 | 0.00 | 0.00 | 93 | 1006.5 |
| 20260506233540 | 13 | 56 | 0.0 | 9.7 | 0.00 | 0.00 | 0.00 | 93 | 1006.5 |
| 20260506233052 | 13 | 88 | 1.6 | 9.7 | 0.00 | 0.00 | 0.00 | 93 | 1006.5 |
| 20260506232537 | 13 | 289 | 3.2 | 9.7 | 0.00 | 0.00 | 0.00 | 92 | 1006.6 |
| 20260506232035 | 13 | 0 | 0.0 | 8.0 | 0.00 | 0.00 | 0.00 | 92 | 1006.7 |
| 20260506231546 | 13 | 99 | 0.0 | 8.0 | 0.00 | 0.00 | 0.00 | 92 | 1006.6 |
| 20260506231038 | 13 | 272 | 0.0 | 8.0 | 0.00 | 0.00 | 0.00 | 92 | 1006.5 |
| 20260506230537 | 14 | 127 | 0.0 | 3.2 | 0.00 | 0.00 | 0.00 | 91 | 1006.5 |
| 20260506230051 | 14 | 233 | 0.0 | 8.0 | 0.00 | 0.00 | 0.00 | 91 | 1006.5 |
| 20260506225541 | 14 | 216 | 0.0 | 8.0 | 0.00 | 0.00 | 0.00 | 91 | 1006.5 |
| 20260506225038 | 14 | 223 | 3.2 | 8.0 | 0.00 | 0.00 | 0.00 | 90 | 1006.6 |
| 20260506224549 | 14 | 213 | 1.6 | 8.0 | 0.00 | 0.00 | 0.00 | 90 | 1006.7 |
| 20260506224039 | 15 | 0 | 1.6 | 22.5 | 0.00 | 0.00 | 0.00 | 89 | 1006.6 |
| 20260506223537 | 15 | 291 | 1.6 | 22.5 | 0.00 | 0.00 | 0.00 | 89 | 1006.6 |
| 20260506223045 | 15 | 257 | 3.2 | 11.3 | 0.00 | 0.00 | 0.00 | 89 | 1007.0 |
| 20260506222538 | 15 | 251 | 3.2 | 11.3 | 0.00 | 0.00 | 0.00 | 89 | 1006.9 |
| 20260506222038 | 15 | 0 | 3.2 | 11.3 | 0.00 | 0.00 | 0.00 | 89 | 1006.9 |
| 20260506221545 | 15 | 243 | 3.2 | 11.3 | 0.00 | 0.00 | 0.00 | 89 | 1006.9 |
| 20260506221037 | 15 | 189 | 3.2 | 8.0 | 0.00 | 0.00 | 0.00 | 89 | 1007.0 |
| 20260506220537 | 15 | 210 | 3.2 | 8.0 | 0.00 | 0.00 | 0.00 | 89 | 1007.0 |
| 20260506220049 | 15 | 271 | 1.6 | 6.4 | 0.00 | 0.00 | 0.00 | 89 | 1007.0 |
| 20260506215537 | 15 | 226 | 0.0 | 11.3 | 0.00 | 0.00 | 0.00 | 89 | 1007.0 |
| 20260506215039 | 15 | 207 | 1.6 | 11.3 | 0.00 | 0.00 | 0.00 | 89 | 1007.0 |
| 20260506214600 | 15 | 140 | 3.2 | 11.3 | 0.00 | 0.00 | 0.00 | 88 | 1007.1 |
| 20260506214036 | 15 | 205 | 1.6 | 8.0 | 0.00 | 0.00 | 0.00 | 88 | 1006.9 |
| 20260506213541 | 15 | 0 | 0.0 | 4.8 | 0.00 | 0.00 | 0.00 | 87 | 1007.1 |
| 20260506213049 | 16 | 235 | 1.6 | 12.9 | 0.00 | 0.00 | 0.00 | 87 | 1007.1 |
| 20260506212538 | 16 | 264 | 1.6 | 12.9 | 0.00 | 0.00 | 0.00 | 86 | 1007.2 |
| 20260506212038 | 16 | 244 | 3.2 | 12.9 | 0.00 | 0.00 | 0.00 | 85 | 1007.2 |
| 20260506211603 | 16 | 84 | 1.6 | 11.3 | 0.00 | 0.00 | 0.00 | 85 | 1007.3 |
| 20260506211038 | 16 | 260 | 1.6 | 11.3 | 0.00 | 0.00 | 0.00 | 85 | 1007.3 |
| 20260506210537 | 16 | 280 | 3.2 | 11.3 | 0.00 | 0.00 | 0.00 | 85 | 1007.2 |
| 20260506210050 | 16 | 102 | 1.6 | 11.3 | 0.00 | 0.00 | 0.00 | 85 | 1007.3 |
| 20260506205534 | 15 | 280 | 1.6 | 9.7 | 0.00 | 0.00 | 0.00 | 85 | 1007.4 |
| 20260506205034 | 15 | 0 | 3.2 | 16.1 | 0.00 | 0.00 | 0.00 | 86 | 1007.4 |
| 20260506204549 | 15 | 0 | 1.6 | 16.1 | 0.00 | 0.00 | 0.00 | 86 | 1007.5 |
| 20260506204033 | 15 | 254 | 3.2 | 12.9 | 0.00 | 0.00 | 0.00 | 87 | 1007.4 |
| 20260506203534 | 15 | 153 | 1.6 | 11.3 | 0.00 | 0.00 | 0.00 | 87 | 1007.6 |
| 20260506203045 | 15 | 202 | 1.6 | 11.3 | 0.00 | 0.00 | 0.00 | 87 | 1007.5 |
| 20260506202536 | 15 | 83 | 3.2 | 17.7 | 0.00 | 0.00 | 0.00 | 87 | 1007.7 |
| 20260506202036 | 15 | 34 | 1.6 | 17.7 | 0.00 | 0.00 | 0.00 | 87 | 1007.7 |
| 20260506201548 | 15 | 251 | 3.2 | 17.7 | 0.00 | 0.00 | 0.00 | 86 | 1007.7 |
| 20260506201036 | 15 | 257 | 3.2 | 9.7 | 0.00 | 0.00 | 0.00 | 84 | 1007.9 |
| 20260506200535 | 16 | 237 | 1.6 | 9.7 | 0.00 | 0.00 | 0.00 | 83 | 1007.9 |
| 20260506200049 | 16 | 196 | 0.0 | 9.7 | 0.00 | 0.00 | 0.00 | 81 | 1007.9 |
| 20260506195536 | 16 | 289 | 1.6 | 14.5 | 0.00 | 0.00 | 0.00 | 78 | 1007.9 |
| 20260506195038 | 17 | 236 | 1.6 | 14.5 | 0.00 | 0.00 | 0.00 | 77 | 1007.9 |
| 20260506194544 | 17 | 246 | 3.2 | 14.5 | 0.00 | 0.00 | 0.00 | 75 | 1008.0 |
| 20260506194039 | 17 | 203 | 1.6 | 14.5 | 0.00 | 0.00 | 0.00 | 74 | 1007.9 |
| 20260506193536 | 17 | 243 | 4.8 | 14.5 | 0.00 | 0.00 | 0.00 | 74 | 1007.9 |
| 20260506193042 | 17 | 290 | 4.8 | 17.7 | 0.00 | 0.00 | 0.00 | 74 | 1008.0 |
| 20260506192534 | 17 | 299 | 6.4 | 19.3 | 0.00 | 0.00 | 0.00 | 73 | 1008.0 |
| 20260506192035 | 17 | 239 | 6.4 | 19.3 | 0.00 | 0.00 | 0.00 | 73 | 1008.1 |
| 20260506191554 | 17 | 174 | 4.8 | 14.5 | 0.00 | 0.00 | 0.00 | 73 | 1008.1 |
| 20260506191034 | 17 | 110 | 3.2 | 12.9 | 0.00 | 0.00 | 0.00 | 73 | 1007.8 |
| 20260506190535 | 17 | 225 | 3.2 | 12.9 | 0.00 | 0.00 | 0.00 | 73 | 1007.8 |
| 20260506190045 | 17 | 304 | 3.2 | 14.5 | 0.00 | 0.00 | 0.00 | 73 | 1007.9 |
| 20260506185537 | 17 | 251 | 4.8 | 16.1 | 0.00 | 0.00 | 0.00 | 73 | 1007.8 |
| 20260506185035 | 18 | 347 | 4.8 | 19.3 | 0.00 | 0.00 | 0.00 | 73 | 1008.1 |
| 20260506184551 | 18 | 250 | 3.2 | 19.3 | 0.00 | 0.00 | 0.00 | 73 | 1007.9 |
| 20260506184036 | 18 | 38 | 6.4 | 19.3 | 0.00 | 0.00 | 0.00 | 72 | 1008.0 |
| 20260506183534 | 18 | 284 | 4.8 | 17.7 | 0.00 | 0.00 | 0.00 | 72 | 1008.2 |
| 20260506183052 | 18 | 264 | 3.2 | 11.3 | 0.00 | 0.00 | 0.00 | 71 | 1008.1 |
| 20260506182534 | 18 | 275 | 3.2 | 17.7 | 0.00 | 0.00 | 0.00 | 71 | 1008.1 |
| 20260506182034 | 18 | 259 | 3.2 | 17.7 | 0.00 | 0.00 | 0.00 | 70 | 1008.4 |
| 20260506181555 | 18 | 260 | 3.2 | 16.1 | 0.00 | 0.00 | 0.00 | 70 | 1008.4 |
| 20260506181034 | 18 | 265 | 4.8 | 27.4 | 0.00 | 0.00 | 0.00 | 70 | 1008.5 |
| 20260506180536 | 18 | 23 | 6.4 | 27.4 | 0.00 | 0.00 | 0.00 | 69 | 1008.7 |
| 20260506180112 | 19 | 293 | 4.8 | 19.3 | 0.00 | 0.00 | 0.00 | 68 | 1009.0 |
| 20260506175534 | 19 | 236 | 3.2 | 20.9 | 0.00 | 0.00 | 0.00 | 68 | 1008.7 |
| 20260506175037 | 19 | 213 | 4.8 | 20.9 | 0.00 | 0.00 | 0.00 | 67 | 1008.9 |
| 20260506174549 | 19 | 252 | 6.4 | 19.3 | 0.00 | 0.00 | 0.00 | 67 | 1009.0 |
| 20260506174037 | 20 | 73 | 4.8 | 19.3 | 0.00 | 0.00 | 0.00 | 67 | 1009.0 |
| 20260506173538 | 20 | 346 | 4.8 | 19.3 | 0.00 | 0.00 | 0.00 | 66 | 1008.7 |
| 20260506173054 | 19 | 319 | 3.2 | 27.4 | 0.00 | 0.00 | 0.00 | 68 | 1008.9 |
| 20260506172538 | 19 | 293 | 6.4 | 27.4 | 0.00 | 0.00 | 0.00 | 67 | 1008.9 |
| 20260506172037 | 20 | 226 | 3.2 | 11.3 | 0.00 | 0.00 | 0.00 | 65 | 1008.6 |
| 20260506171550 | 20 | 241 | 3.2 | 14.5 | 0.00 | 0.00 | 0.00 | 67 | 1008.7 |
| 20260506171037 | 20 | 215 | 4.8 | 19.3 | 0.00 | 0.00 | 0.00 | 68 | 1008.9 |
| 20260506170539 | 19 | 212 | 4.8 | 19.3 | 0.00 | 0.00 | 0.00 | 68 | 1008.9 |
| 20260506170049 | 20 | 259 | 4.8 | 19.3 | 0.00 | 0.00 | 0.00 | 68 | 1009.2 |
| 20260506165537 | 20 | 214 | 4.8 | 19.3 | 0.00 | 0.00 | 0.00 | 67 | 1009.3 |
| 20260506165038 | 20 | 259 | 1.6 | 19.3 | 0.00 | 0.00 | 0.00 | 67 | 1009.2 |
| 20260506164549 | 20 | 324 | 3.2 | 19.3 | 0.00 | 0.00 | 0.00 | 66 | 1009.3 |
| 20260506164037 | 20 | 288 | 3.2 | 12.9 | 0.00 | 0.00 | 0.00 | 66 | 1009.1 |
| 20260506163537 | 20 | 254 | 4.8 | 22.5 | 0.00 | 0.00 | 0.00 | 67 | 1009.3 |
| 20260506163050 | 20 | 221 | 6.4 | 22.5 | 0.00 | 0.00 | 0.00 | 65 | 1009.3 |
| 20260506162537 | 20 | 256 | 4.8 | 14.5 | 0.00 | 0.00 | 0.00 | 64 | 1009.3 |
| 20260506162039 | 20 | 82 | 3.2 | 16.1 | 0.00 | 0.00 | 0.00 | 64 | 1009.3 |
| 20260506161556 | 20 | 257 | 1.6 | 17.7 | 0.00 | 0.00 | 0.00 | 65 | 1009.4 |
| 20260506161037 | 20 | 297 | 1.6 | 24.1 | 0.00 | 0.00 | 0.00 | 65 | 1009.4 |
| 20260506160537 | 20 | 260 | 3.2 | 24.1 | 0.00 | 0.00 | 0.00 | 65 | 1009.5 |
| 20260506160049 | 20 | 316 | 8.0 | 20.9 | 0.00 | 0.00 | 0.00 | 65 | 1009.6 |
| 20260506155541 | 20 | 82 | 8.0 | 20.9 | 0.00 | 0.00 | 0.00 | 65 | 1009.7 |
| 20260506155038 | 20 | 236 | 3.2 | 16.1 | 0.00 | 0.00 | 0.00 | 63 | 1009.9 |
| 20260506154552 | 20 | 311 | 6.4 | 24.1 | 0.00 | 0.00 | 0.00 | 64 | 1010.1 |
| 20260506154038 | 20 | 237 | 4.8 | 24.1 | 0.00 | 0.00 | 0.00 | 65 | 1010.1 |
| 20260506153538 | 20 | 351 | 6.4 | 16.1 | 0.00 | 0.00 | 0.00 | 65 | 1010.4 |
| 20260506153057 | 20 | 256 | 4.8 | 16.1 | 0.00 | 0.00 | 0.00 | 66 | 1010.6 |
| 20260506152538 | 20 | 274 | 4.8 | 16.1 | 0.00 | 0.00 | 0.00 | 65 | 1010.3 |
| 20260506152041 | 20 | 267 | 6.4 | 16.1 | 0.00 | 0.00 | 0.00 | 65 | 1010.4 |
| 20260506151551 | 20 | 56 | 3.2 | 20.9 | 0.00 | 0.00 | 0.00 | 65 | 1010.1 |
| 20260506151037 | 20 | 214 | 4.8 | 20.9 | 0.00 | 0.00 | 0.00 | 65 | 1010.4 |
| 20260506150537 | 20 | 274 | 1.6 | 16.1 | 0.00 | 0.00 | 0.00 | 66 | 1010.3 |
| 20260506150056 | 20 | 340 | 4.8 | 11.3 | 0.00 | 0.00 | 0.00 | 65 | 1010.2 |
| 20260506145539 | 20 | 289 | 3.2 | 17.7 | 0.00 | 0.00 | 0.00 | 64 | 1010.1 |
| 20260506145037 | 20 | 137 | 3.2 | 17.7 | 0.00 | 0.00 | 0.00 | 65 | 1010.0 |
| 20260506144601 | 20 | 119 | 3.2 | 14.5 | 0.00 | 0.00 | 0.00 | 65 | 1010.0 |
| 20260506144037 | 20 | 290 | 4.8 | 14.5 | 0.00 | 0.00 | 0.00 | 64 | 1010.2 |
| 20260506143537 | 20 | 30 | 4.8 | 14.5 | 0.00 | 0.00 | 0.00 | 63 | 1010.1 |
| 20260506143050 | 20 | 122 | 4.8 | 12.9 | 0.00 | 0.00 | 0.00 | 63 | 1010.0 |
| 20260506142539 | 20 | 7 | 4.8 | 12.9 | 0.00 | 0.00 | 0.00 | 63 | 1010.0 |
| 20260506142037 | 20 | 250 | 4.8 | 12.9 | 0.00 | 0.00 | 0.00 | 63 | 1009.9 |
| 20260506141542 | 20 | 333 | 3.2 | 11.3 | 0.00 | 0.00 | 0.00 | 63 | 1010.0 |
| 20260506141037 | 20 | 224 | 3.2 | 16.1 | 0.00 | 0.00 | 0.00 | 63 | 1010.0 |
| 20260506140538 | 20 | 250 | 4.8 | 16.1 | 0.00 | 0.00 | 0.00 | 62 | 1010.0 |
| 20260506140051 | 21 | 242 | 1.6 | 20.9 | 0.00 | 0.00 | 0.00 | 64 | 1010.2 |
| 20260506135537 | 20 | 279 | 4.8 | 20.9 | 0.00 | 0.00 | 0.00 | 64 | 1010.4 |
| 20260506135037 | 20 | 288 | 4.8 | 12.9 | 0.00 | 0.00 | 0.00 | 65 | 1010.5 |
| 20260506134549 | 20 | 203 | 3.2 | 11.3 | 0.00 | 0.00 | 0.00 | 66 | 1010.8 |
| 20260506134037 | 20 | 295 | 3.2 | 8.0 | 0.00 | 0.00 | 0.00 | 66 | 1010.7 |
| 20260506133538 | 20 | 245 | 3.2 | 9.7 | 0.00 | 0.00 | 0.00 | 68 | 1010.8 |
| 20260506133046 | 20 | 229 | 1.6 | 12.9 | 0.00 | 0.00 | 0.00 | 68 | 1010.8 |
| 20260506132537 | 19 | 96 | 3.2 | 12.9 | 0.00 | 0.00 | 0.00 | 69 | 1010.7 |
| 20260506132037 | 19 | 245 | 0.0 | 17.7 | 0.00 | 0.00 | 0.00 | 70 | 1010.7 |
| 20260506131548 | 18 | 240 | 1.6 | 17.7 | 0.00 | 0.00 | 0.00 | 72 | 1010.7 |
| 20260506131037 | 18 | 107 | 3.2 | 17.7 | 0.00 | 0.00 | 0.00 | 73 | 1010.7 |
| 20260506130537 | 17 | 288 | 3.2 | 11.3 | 0.00 | 0.00 | 0.00 | 73 | 1010.8 |
| 20260506130052 | 18 | 262 | 3.2 | 8.0 | 0.00 | 0.00 | 0.00 | 73 | 1010.8 |
| 20260506125537 | 17 | 233 | 1.6 | 11.3 | 0.00 | 0.00 | 0.00 | 74 | 1010.7 |
| 20260506125037 | 17 | 210 | 1.6 | 11.3 | 0.00 | 0.00 | 0.00 | 75 | 1010.7 |
| 20260506124550 | 17 | 254 | 3.2 | 11.3 | 0.00 | 0.00 | 0.00 | 75 | 1010.7 |
| 20260506124041 | 17 | 120 | 3.2 | 14.5 | 0.00 | 0.00 | 0.00 | 76 | 1010.4 |
| 20260506123538 | 17 | 248 | 3.2 | 14.5 | 0.00 | 0.00 | 0.00 | 77 | 1010.4 |
| 20260506123049 | 16 | 207 | 4.8 | 17.7 | 0.00 | 0.00 | 0.00 | 79 | 1010.7 |
| 20260506122538 | 16 | 281 | 3.2 | 17.7 | 0.00 | 0.00 | 0.00 | 80 | 1010.9 |
| 20260506122039 | 15 | 243 | 3.2 | 24.1 | 0.00 | 0.00 | 0.00 | 80 | 1010.8 |
| 20260506121548 | 16 | 305 | 1.6 | 24.1 | 0.00 | 0.00 | 0.00 | 80 | 1011.1 |
| 20260506121037 | 16 | 52 | 3.2 | 24.1 | 0.00 | 0.00 | 0.00 | 80 | 1011.0 |
| 20260506120538 | 16 | 237 | 3.2 | 20.9 | 0.00 | 0.00 | 0.00 | 80 | 1011.0 |
| 20260506120047 | 16 | 137 | 1.6 | 16.1 | 0.00 | 0.00 | 0.00 | 81 | 1011.1 |
| 20260506115541 | 16 | 288 | 3.2 | 16.1 | 0.00 | 0.00 | 0.00 | 80 | 1011.2 |
| 20260506115038 | 16 | 0 | 1.6 | 6.4 | 0.00 | 0.00 | 0.00 | 80 | 1011.3 |
| 20260506114547 | 16 | 80 | 1.6 | 12.9 | 0.00 | 0.00 | 0.00 | 81 | 1011.4 |
| 20260506114038 | 15 | 302 | 3.2 | 19.3 | 0.00 | 0.00 | 0.00 | 81 | 1011.4 |
| 20260506113537 | 15 | 270 | 4.8 | 19.3 | 0.00 | 0.00 | 0.00 | 82 | 1011.3 |
| 20260506113045 | 15 | 58 | 1.6 | 9.7 | 0.00 | 0.00 | 0.00 | 82 | 1011.2 |
| 20260506112538 | 15 | 224 | 3.2 | 8.0 | 0.00 | 0.00 | 0.00 | 83 | 1011.4 |
| 20260506112039 | 15 | 266 | 1.6 | 8.0 | 0.00 | 0.00 | 0.00 | 83 | 1011.3 |
| 20260506111547 | 15 | 256 | 1.6 | 12.9 | 0.00 | 0.00 | 0.00 | 84 | 1011.2 |
| 20260506111037 | 15 | 25 | 3.2 | 12.9 | 0.00 | 0.00 | 0.00 | 84 | 1011.2 |
| 20260506110538 | 15 | 210 | 3.2 | 12.9 | 0.00 | 0.00 | 0.00 | 84 | 1011.3 |
| 20260506110046 | 15 | 117 | 3.2 | 11.3 | 0.00 | 0.00 | 0.00 | 84 | 1011.4 |
| 20260506105538 | 15 | 235 | 0.0 | 9.7 | 0.00 | 0.00 | 0.00 | 85 | 1011.4 |
| 20260506105041 | 14 | 255 | 3.2 | 11.3 | 0.00 | 0.00 | 0.00 | 85 | 1011.3 |
| 20260506104549 | 14 | 236 | 1.6 | 11.3 | 0.00 | 0.00 | 0.00 | 85 | 1011.3 |
| 20260506104037 | 14 | 271 | 1.6 | 11.3 | 0.00 | 0.00 | 0.00 | 85 | 1011.4 |
| 20260506103537 | 14 | 247 | 3.2 | 11.3 | 0.00 | 0.00 | 0.00 | 85 | 1011.3 |
| 20260506103043 | 14 | 241 | 4.8 | 9.7 | 0.00 | 0.00 | 0.00 | 85 | 1011.3 |
| 20260506102540 | 15 | 298 | 0.0 | 4.8 | 0.00 | 0.00 | 0.00 | 85 | 1011.2 |
| 20260506102036 | 15 | 250 | 1.6 | 8.0 | 0.00 | 0.00 | 0.00 | 85 | 1011.2 |
| 20260506101545 | 15 | 0 | 1.6 | 8.0 | 0.00 | 0.00 | 0.00 | 85 | 1011.2 |
| 20260506101037 | 15 | 233 | 1.6 | 8.0 | 0.00 | 0.00 | 0.00 | 85 | 1011.1 |
| 20260506100537 | 14 | 240 | 3.2 | 8.0 | 0.00 | 0.00 | 0.00 | 85 | 1011.0 |
| 20260506100047 | 14 | 277 | 0.0 | 8.0 | 0.00 | 0.00 | 0.00 | 85 | 1011.0 |
| 20260506095538 | 14 | 0 | 3.2 | 11.3 | 0.00 | 0.00 | 0.00 | 85 | 1011.0 |
| 20260506095040 | 14 | 285 | 1.6 | 11.3 | 0.00 | 0.00 | 0.00 | 86 | 1011.0 |
| 20260506094600 | 14 | 98 | 1.6 | 11.3 | 0.00 | 0.00 | 0.00 | 86 | 1011.1 |
| 20260506094037 | 14 | 202 | 3.2 | 11.3 | 0.00 | 0.00 | 0.00 | 85 | 1010.9 |
| 20260506093537 | 14 | 210 | 1.6 | 9.7 | 0.00 | 0.00 | 0.00 | 86 | 1011.0 |
| 20260506093047 | 14 | 0 | 0.0 | 9.7 | 0.00 | 0.00 | 0.00 | 85 | 1011.0 |
| 20260506092537 | 14 | 285 | 1.6 | 9.7 | 0.00 | 0.00 | 0.00 | 85 | 1010.9 |
| 20260506092037 | 14 | 299 | 1.6 | 11.3 | 0.00 | 0.00 | 0.00 | 85 | 1010.9 |
| 20260506091552 | 14 | 189 | 1.6 | 11.3 | 0.00 | 0.00 | 0.00 | 85 | 1011.0 |
| 20260506091037 | 14 | 0 | 0.0 | 9.7 | 0.00 | 0.00 | 0.00 | 84 | 1011.0 |
| 20260506090537 | 14 | 12 | 1.6 | 12.9 | 0.00 | 0.00 | 0.00 | 84 | 1011.0 |
| 20260506090044 | 14 | 222 | 1.6 | 12.9 | 0.00 | 0.00 | 0.00 | 84 | 1011.0 |
| 20260506085537 | 14 | 256 | 3.2 | 12.9 | 0.00 | 0.00 | 0.00 | 84 | 1011.2 |
| 20260506085039 | 14 | 296 | 0.0 | 8.0 | 0.00 | 0.00 | 0.00 | 84 | 1011.2 |
| 20260506084554 | 14 | 198 | 1.6 | 11.3 | 0.00 | 0.00 | 0.00 | 84 | 1011.1 |
| 20260506084038 | 14 | 353 | 1.6 | 17.7 | 0.00 | 0.00 | 0.00 | 84 | 1011.1 |
| 20260506083538 | 15 | 241 | 3.2 | 17.7 | 0.00 | 0.00 | 0.00 | 84 | 1011.2 |
| 20260506083057 | 15 | 106 | 3.2 | 17.7 | 0.00 | 0.00 | 0.00 | 83 | 1011.2 |
| 20260506082537 | 15 | 228 | 3.2 | 12.9 | 0.00 | 0.00 | 0.00 | 83 | 1011.2 |
| 20260506082037 | 15 | 208 | 1.6 | 9.7 | 0.00 | 0.00 | 0.00 | 83 | 1011.1 |
| 20260506081547 | 15 | 266 | 3.2 | 12.9 | 0.00 | 0.00 | 0.00 | 83 | 1011.2 |
| 20260506081047 | 15 | 290 | 3.2 | 12.9 | 0.00 | 0.00 | 0.00 | 83 | 1011.2 |
| 20260506080537 | 15 | 219 | 3.2 | 12.9 | 0.00 | 0.00 | 0.00 | 83 | 1011.2 |